Weather History for PHKO - December, 2012

Change the Weather History Date:

Thursday, December 6, 2012

  Actual Average (PHTO) Record (PHTO)
Temperature  
Mean Temperature 77 °F 73 °F  
Max Temperature 81 °F 80 °F 91 °F (1977)
Min Temperature 73 °F 66 °F 60 °F (2010)
Degree Days  
Heating Degree Days 0 0  
Month to date heating degree days 0  
Since 1 July heating degree days 0  
Cooling Degree Days 12 8  
Month to date cooling degree days 48  
Year to date cooling degree days 3055  
Growing Degree Days 27 (Base 50)    
Moisture  
Dew Point 68 °F    
Average Humidity 75    
Maximum Humidity 88    
Minimum Humidity 65    
Precipitation  
Precipitation 0.00 in 0.40 in 8.00 in (1950)
Month to date precipitation 2.44  
Year to date precipitation 117.59  
Snow  
Snow 0.00 in - - ()
Month to date snowfall  
Since 1 July snowfall  
Snow Depth -    
Sea Level Pressure  
Sea Level Pressure 29.96 in    
Wind  
Wind Speed 4 mph (NNW)    
Max Wind Speed 8 mph    
Max Gust Speed -    
Visibility 10 miles    
Events Rain    
T = Trace of Precipitation, MM = Missing Value Source: NWS Daily Summary

Daily Weather History Graph

Daily Weather History Graph

Search for Another Location

Airport or City:

Trip Planner

Search our weather history database for the weather conditions in past years. The results will help you decide how hot, cold, wet, or windy it might be!

Date:

Astronomy

Dec. 06, 2012 Rise Set
Actual Time 6:45 AM HST 5:45 PM HST
Civil Twilight 6:22 AM HST 6:08 PM HST
Nautical Twilight 5:54 AM HST 6:36 PM HST
Astronomical Twilight 5:27 AM HST 7:03 PM HST
Moon 12:04 AM HST (12/6) 12:30 PM HST (12/6)
Length of Visible Light 11h 46m
Length of Day
10h 59m
Waning Gibbous, 47% of the Moon is Illuminated
Dec 6
Waning Gibbous
Dec 12
New
Dec 19
First Quarter
Dec 28
Full
Jan 4
Last Quarter

Hourly Weather History & Observations

Time (HST) Temp. Heat Index Dew Point Humidity Pressure Visibility Wind Dir Wind Speed Gust Speed Precip Events Conditions
12:53 AM 75.0 °F - 69.1 °F 82% 29.97 in 10.0 mi NNE 3.5 mph - N/A   Overcast
1:53 AM 73.0 °F - 66.9 °F 81% 29.95 in 10.0 mi NNE 5.8 mph - N/A   Clear
2:53 AM 73.0 °F - 66.9 °F 81% 29.95 in 10.0 mi North 4.6 mph - N/A   Scattered Clouds
3:06 AM 73.4 °F - 66.2 °F 78% 29.95 in 10.0 mi NNE 3.5 mph - N/A   Mostly Cloudy
3:25 AM 73.4 °F - 66.2 °F 78% 29.95 in 10.0 mi NE 4.6 mph - N/A   Overcast
3:49 AM 73.4 °F - 69.8 °F 88% 29.95 in 10.0 mi NNE 4.6 mph - N/A   Overcast
3:53 AM 75.0 °F - 69.1 °F 82% 29.95 in 10.0 mi NNE 3.5 mph - N/A   Overcast
4:03 AM 75.2 °F - 69.8 °F 83% 29.95 in 10.0 mi North 4.6 mph - N/A   Overcast
4:37 AM 75.2 °F - 69.8 °F 83% 29.95 in 10.0 mi Calm Calm - N/A   Overcast
4:53 AM 75.0 °F - 69.1 °F 82% 29.96 in 10.0 mi North 5.8 mph - N/A   Overcast
5:53 AM 77.0 °F - 70.0 °F 79% 29.96 in 10.0 mi WSW 5.8 mph - N/A   Overcast
6:53 AM 75.9 °F - 70.0 °F 82% 29.98 in 10.0 mi Calm Calm - N/A   Overcast
7:01 AM 75.2 °F - 69.8 °F 83% 29.98 in 10.0 mi East 3.5 mph - N/A   Overcast
7:17 AM 75.2 °F - 69.8 °F 83% 29.98 in 10.0 mi NE 3.5 mph - N/A   Overcast
7:53 AM 75.9 °F - 70.0 °F 82% 29.99 in 10.0 mi East 4.6 mph - N/A   Overcast
8:53 AM 77.0 °F - 70.0 °F 79% 30.01 in 10.0 mi Calm Calm - 0.00 in Rain Light Rain
9:02 AM 77.0 °F - 69.8 °F 78% 30.00 in 10.0 mi Calm Calm - 0.00 in   Overcast
9:22 AM 78.8 °F - 68.0 °F 69% 30.00 in 10.0 mi SW 5.8 mph - 0.00 in   Overcast
9:48 AM 78.8 °F - 69.8 °F 74% 30.00 in 10.0 mi SW 8.1 mph - 0.00 in   Overcast
9:53 AM 80.1 °F 82.9 °F 69.1 °F 69% 30.00 in 10.0 mi SW 6.9 mph - 0.00 in   Overcast
10:18 AM 80.6 °F 83.2 °F 68.0 °F 65% 30.00 in 10.0 mi SW 5.8 mph - N/A   Overcast
10:26 AM 80.6 °F 83.2 °F 68.0 °F 65% 29.99 in 10.0 mi SW 6.9 mph - N/A   Overcast
10:53 AM 79.0 °F - 69.1 °F 72% 29.99 in 10.0 mi SW 5.8 mph - N/A   Partly Cloudy
11:53 AM 81.0 °F 83.8 °F 68.0 °F 65% 29.96 in 10.0 mi Variable 6.9 mph - N/A   Clear
12:53 PM 80.1 °F 82.9 °F 69.1 °F 69% 29.93 in 10.0 mi WSW 5.8 mph - N/A   Clear
1:53 PM 80.1 °F 82.7 °F 68.0 °F 67% 29.91 in 10.0 mi WSW 6.9 mph - N/A   Partly Cloudy
2:53 PM 80.1 °F 82.9 °F 69.1 °F 69% 29.90 in 10.0 mi Variable 5.8 mph - N/A   Mostly Cloudy
3:53 PM 81.0 °F 84.1 °F 69.1 °F 67% 29.89 in 10.0 mi WNW 5.8 mph - N/A   Clear
4:53 PM 79.0 °F - 68.0 °F 69% 29.90 in 10.0 mi NW 6.9 mph - N/A   Mostly Cloudy
5:53 PM 79.0 °F - 68.0 °F 69% 29.91 in 10.0 mi NW 6.9 mph - N/A   Scattered Clouds
6:53 PM 78.1 °F - 68.0 °F 71% 29.93 in 10.0 mi NNW 4.6 mph - N/A   Mostly Cloudy
7:53 PM 78.1 °F - 68.0 °F 71% 29.94 in 10.0 mi NNW 4.6 mph - N/A   Overcast
8:53 PM 75.9 °F - 66.9 °F 74% 29.93 in 10.0 mi Calm Calm - N/A   Partly Cloudy
9:53 PM 75.0 °F - 66.0 °F 73% 29.93 in 10.0 mi Calm Calm - N/A   Clear
10:53 PM 75.0 °F - 66.0 °F 73% 29.93 in 10.0 mi ENE 3.5 mph - N/A   Mostly Cloudy
11:53 PM 73.9 °F - 64.9 °F 73% 29.93 in 10.0 mi Calm Calm - N/A   Mostly Cloudy